This is the latest recevied weather packets stored in our database for station/object KF6ILA. If no packets are shown the sender has not sent any weather packets the latest 10 day(s).
| Time | Temp. | Humidity | Pressure | Rain* | Wind** | Luminosity | Snow |
|---|---|---|---|---|---|---|---|
| 1787425688 | 32.78° C | 30% | 1019.7 hPa | 0 mm | - | 960 W/m² | - |
| 1787425094 | 32.78° C | 31% | 1019.7 hPa | 0 mm | - | 947 W/m² | - |
| 1787424797 | 32.78° C | 30% | 1019.7 hPa | 0 mm | - | 944 W/m² | - |
| 1787424500 | 32.78° C | 30% | 1019.9 hPa | 0 mm | - | 937 W/m² | - |
| 1787424203 | 32.78° C | 31% | 1020 hPa | 0 mm | - | 932 W/m² | - |
| 1787422718 | 32.78° C | 30% | 1020.2 hPa | 0 mm | - | 895 W/m² | - |
| 1787422421 | 32.78° C | 30% | 1020.3 hPa | 0 mm | - | 886 W/m² | - |
| 1787422124 | 32.22° C | 31% | 1020.2 hPa | 0 mm | - | 877 W/m² | - |
| 1787421827 | 32.22° C | 31% | 1020.2 hPa | 0 mm | - | 868 W/m² | - |
| 1787420639 | 31.67° C | 31% | 1020.2 hPa | 0 mm | - | 830 W/m² | - |
| 1787420342 | 32.22° C | 31% | 1020.2 hPa | 0 mm | - | 819 W/m² | - |
| 1787419748 | 31.67° C | 32% | 1020.2 hPa | 0 mm | - | 796 W/m² | - |
| 1787419451 | 31.11° C | 32% | 1020.2 hPa | 0 mm | - | 786 W/m² | - |
| 1787419154 | 31.11° C | 32% | 1020.3 hPa | 0 mm | - | 773 W/m² | - |
| 1787418857 | 31.11° C | 32% | 1020.3 hPa | 0 mm | - | 759 W/m² | - |
| 1787418263 | 31.11° C | 33% | 1020.3 hPa | 0 mm | - | 735 W/m² | - |
| 1787417372 | 30.56° C | 33% | 1020.2 hPa | 0 mm | - | 693 W/m² | - |
| 1787416778 | 30° C | 33% | 1020.3 hPa | 0 mm | - | 661 W/m² | - |
| 1787416481 | 30° C | 33% | 1020.3 hPa | 0 mm | - | 645 W/m² | - |
| 1787416184 | 29.44° C | 33% | 1020.2 hPa | 0 mm | - | 631 W/m² | - |
| 1787414996 | 29.44° C | 34% | 1020.2 hPa | 0 mm | - | 570 W/m² | - |
| 1787413808 | 28.89° C | 35% | 1020.1 hPa | 0 mm | - | 503 W/m² | - |
| 1787413511 | 28.33° C | 35% | 1020.1 hPa | 0 mm | - | 485 W/m² | - |
| 1787413214 | 28.33° C | 36% | 1020 hPa | 0 mm | - | 468 W/m² | - |
| 1787412917 | 28.33° C | 36% | 1020 hPa | 0 mm | - | 450 W/m² | - |
* Rain latest hour (hover to see other rain measurements)
** Current wind speed in m/s (hover to see current wind gust speed)